EGYPTSAT 1 1 31117U 07012A 21019.16910291 .00000102 00000-0 23277-4 0 9993 2 31117 97.7975 347.4982 0005307 354.2643 5.8503 14.73048891739069 SAUDISAT 3 1 31118U 07012B 21019.12299271 .00000031 00000-0 13321-4 0 9998 2 31118 97.9018 335.8239 0016036 39.1515 321.0848 14.69187797737634 SAUDICOMSAT 7 1 31119U 07012C 21018.85966078 .00000050 00000-0 19495-4 0 9993 2 31119 98.1241 326.6422 0058702 262.6311 96.8216 14.61833593733525 SL-24 DEB 1 31120U 07012D 21018.78047100 .00000136 00000-0 26412-4 0 9995 2 31120 97.6759 29.8402 0008201 56.2968 303.9024 14.76400767740402 SAUDICOMSAT 6 1 31121U 07012E 21018.84470606 .00000072 00000-0 25246-4 0 9997 2 31121 98.1736 321.6966 0076514 355.2862 4.7608 14.58630276731920 CSTB 1 1 31122U 07012F 21018.86117777 .00000243 00000-0 57332-4 0 9998 2 31122 98.1926 331.8879 0077962 342.8903 16.9671 14.61151355732234 SL-24 R/B 1 31123U 07012G 21018.80953975 -.00000034 00000-0 28339-5 0 9996 2 31123 98.0041 30.0113 0312928 24.8353 146.4616 14.12613531709250 SAUDICOMSAT 5 1 31124U 07012H 21018.84353546 .00000047 00000-0 18298-4 0 9994 2 31124 98.0903 328.8619 0050772 213.9693 145.8255 14.63538103734315 SAUDICOMSAT 3 1 31125U 07012J 21018.84638908 .00000068 00000-0 21484-4 0 9997 2 31125 98.0535 331.1516 0043485 166.1710 194.0696 14.65307240735147 MAST 1 31126U 07012K 21019.10577858 .00000191 00000-0 50746-4 0 9994 2 31126 98.2059 319.7057 0091142 61.1532 299.8777 14.56873077730877 SAUDICOMSAT 4 1 31127U 07012L 21018.82034009 .00000060 00000-0 22072-4 0 9995 2 31127 98.1500 324.6535 0066995 306.8597 52.6472 14.60346979732760 LIBERTAD-1 1 31128U 07012M 21018.79141810 .00000150 00000-0 42151-4 0 9991 2 31128 98.2194 318.7004 0097572 92.2452 268.9922 14.56262238730295 POLYSAT CP3 1 31129U 07012N 21018.82337424 .00000180 00000-0 48000-4 0 9996 2 31129 98.2233 321.4120 0096309 82.4090 278.8035 14.57007689730479 CAPE1 1 31130U 07012P 21018.78750784 .00000174 00000-0 46936-4 0 9990 2 31130 98.2209 319.8141 0097122 88.2414 272.9905 14.56619627730163 POLYSAT CP4 1 31132U 07012Q 21018.99925427 .00000195 00000-0 49780-4 0 9996 2 31132 98.1928 325.9409 0080741 5.6417 354.5673 14.59254365731732 AEROCUBE 2 1 31133U 07012R 21019.11477903 .00000163 00000-0 43336-4 0 9999 2 31133 98.1927 326.0880 0080717 5.1129 355.0877 14.59282009731744